Weather in Surovatikha

Russia / Nizhny Novgorod Oblast'     55°44′51″N   43°55′40″E
temp.,
°C
wind,
m/s
gust,
m/s
humid.,
%
clouds,
%
prec.,
mm/h
press.,
hPa
HPBL,
m
19 september, sun
sun1900:00+1ne228098 0.0 102614
03:00+1ne2377100 0.0 102648
06:00+1e1178100 0.0 102711
09:00+6ene3455100 0.0 1027573
12:00+9e3342100 0.0 10261165
15:00+10e3339100 0.0 10251247
18:00+7ene3551100 0.0 1025106
21:00+4e3760100 0.0 1025131
20 september, mon
mon2000:00+4e3963100 0.0 1025237
03:00+4ene51167100 0.0 1025333
06:00+3e51272100 0.0 1025408
09:00+5e61263100 0.0 1025567
12:00+8ese6956100 0.0 10251056
15:00+9ese61051100 0.0 10241270
18:00+8ese61055100 0.0 10241055
21:00+7e61256100 0.0 1024789
21 september, tue
tue2100:00+7ese61257100 0.0 1023665
03:00+5ese51367100 0.2 1022582
06:00+5e61480100 0.4 1022615
09:00+5ese61478100 0.9 1021613
12:00+6ese61476100 0.4 1020662
15:00+7ese61367100 0.4 1020736
18:00+7ese6136768 0.0 1019739
21:00+7ese61276100 0.0 1019681
22 september, wed
wed2200:00+7ese61273100 0.0 1018599
03:00+8e61265100 0.1 1017582
06:00+6e61380100 0.9 1017555
09:00+6e51286100 2.4 1018527
12:00+7e41085100 0.3 1018488
15:00+8ese31089100 1.1 1018466
18:00+8e3997100 2.9 1019408
21:00+8ene2798100 5.4 1018300
23 september, thu
thu2300:00+9e2799100 1.3 1018328
03:00+9e2699100 1.9 1018285
06:00+10ese3799100 0.0 1018366
09:00+10ese4894100 0.1 1018399
12:00+12se4688100 0.3 1018582
15:00+15se467289 0.4 10171021
18:00+11ese5109093 0.1 1017322
21:00+12se51192100 0.6 1017597